Location: Waning Moon II Observatory
(30.3730°N, 89.7620°W)
Time: 00:00:29
(UTC-05:00)

Meteor 1-21 - Visible Passes

Search period start: 23 May 2017 00:00
Search period end: 02 June 2017 00:00
Orbit: 844 x 888 km, 81.2° (Epoch: 21 May)

Date Brightness Start Highest point End Pass type
(mag) Time Alt. Az. Time Alt. Az. Time Alt. Az.
23 May 5.8 00:09:37 31° NNW 00:09:37 31° NNW 00:12:48 10° N visible
23 May 6.4 22:19:45 12° ENE 22:19:45 12° ENE 22:20:33 10° NE visible
24 May 5.7 00:02:03 33° NNW 00:02:03 33° NNW 00:05:28 10° N visible
24 May 6.3 22:12:08 13° ENE 22:12:08 13° ENE 22:13:16 10° NE visible
24 May 5.6 23:54:28 35° NNW 23:54:28 35° NNW 23:58:08 10° N visible
25 May 6.2 22:04:32 14° ENE 22:04:32 14° ENE 22:05:58 10° NE visible
25 May 5.5 23:46:51 38° NW 23:46:51 38° NW 23:50:48 10° N visible
26 May 6.1 21:56:54 15° ENE 21:56:54 15° ENE 21:58:41 10° NE visible
26 May 5.3 23:39:11 40° NW 23:39:11 40° NW 23:43:28 10° N visible
27 May 6.0 21:49:13 16° ENE 21:49:13 16° ENE 21:51:23 10° NE visible
27 May 5.2 23:31:31 43° NW 23:31:31 43° NW 23:36:08 10° N visible
28 May 5.9 21:41:30 16° ENE 21:41:30 16° ENE 21:44:05 10° NE visible
28 May 5.1 23:23:48 44° WNW 23:23:48 44° WNW 23:28:48 10° N visible
29 May 5.8 21:33:45 17° E 21:33:45 17° E 21:36:48 10° NE visible
29 May 5.0 23:16:03 45° WNW 23:16:03 45° WNW 23:21:28 10° N visible
30 May 5.8 21:25:57 17° E 21:25:57 17° E 21:29:30 10° NE visible
30 May 5.0 23:08:15 44° W 23:08:39 44° W 23:14:08 10° N visible
31 May 5.7 21:18:06 17° E 21:18:33 18° E 21:22:13 10° NE visible
31 May 5.1 23:00:24 41° WSW 23:01:20 44° W 23:06:48 10° N visible
01 Jun 5.7 21:10:12 17° E 21:11:14 18° E 21:14:55 10° NE visible
01 Jun 5.1 22:52:30 36° WSW 22:54:00 44° W 22:59:28 10° N visible
